Location: *
(58.4167°N, 22.5000°E)
Time: 23:50:55
(UTC+00:00)

Terra - Pass Details

Date: 22 September 2019
Orbit: 701 x 703 km, 98.2° (Epoch: 14 October)

Event Time Altitude Azimuth Distance (km) Brightness Sun altitude
Exits shadow 18:03:26 13° 77° (ENE) 2,002 3.7 -12.7°
Maximum altitude 18:05:39 17° 46° (NE) 1,759 3.7 -13.0°
Drops below altitude 10° 18:08:39 10° 7° (N) 2,185 4.6 -13.3°
Sets 18:11:37 0° 348° (NNW) 3,108 5.7 -13.7°
